Regional Weather Roundup
Issued by NWS Sioux Falls, SD

Home | Current Version | Previous Version | Graphics & Text | Print | Product List | Glossary Off
Versions: 1 2 3 4 5 6 7 8 9 10 11 12 13 14 15 16 17 18 19 20 21 22 23 24 25 26 27 28 29 30 31 32 33 34 35 36 37 38 39 40 41 42 43 44 45 46 47 48 49 50

000
ASUS43 KFSD 292110
RWRFSD

WEATHER ROUNDUP FOR SE SOUTH DAKOTA/SW MINNESOTA/NW IOWA
NATIONAL WEATHER SERVICE SIOUX FALLS SD
400 PM CDT FRI AUG 29 2014

NOTE: "FAIR" INDICATES FEW OR NO CLOUDS BELOW 12,000 FEET WITH NO
SIGNIFICANT WEATHER AND OR OBSTRUCTIONS TO VISIBILITY.


SDZ038>040-050-052>070-292200-
SOUTHEAST SOUTH DAKOTA

CITY           SKY/WX    TMP DP  RH WIND       PRES   REMARKS
CHAMBERLAIN    MOSUNNY   81  64  55 NW7       29.80F
HURON          SUNNY     80  66  62 NW6       29.77F
MADISON        FAIR      73  72  94 N6        29.78F
MITCHELL       MOSUNNY   80  68  66 NW7       29.78S
SIOUX FALLS    CLOUDY    66  63  90 S3        29.79R THUNDER
WINNER         LGT RAIN  83  63  50 N13       29.83F
YANKTON        CLOUDY    79  70  73 SW9       29.75F
$$

MNZ071-072-080-081-089-090-097-098-292200-
SOUTHWEST MINNESOTA

CITY           SKY/WX    TMP DP  RH WIND       PRES   REMARKS
FAIRMONT       CLOUDY    72  66  83 W8        29.76F
JACKSON        LGT RAIN  72  68  88 SW9       29.79F
LUVERNE        CLOUDY    73  70  88 S7        29.78F
MARSHALL       CLOUDY    72  66  83 NW3       29.77S
MONTEVIDEO     CLOUDY    73  73 100 N5        29.77S
PIPESTONE      LGT RAIN  70  64  83 CALM      29.79S
REDWOOD FALLS  LGT RAIN  69  68  96 W3        29.76R
TRACY          RAIN      71  69  95 CALM      29.77F
WINDOM         RAIN      72  68  88 SW8       29.79R
WORTHINGTON    CLOUDY    70  70 100 SW7       29.81S
$$

IAZ001>003-012>014-020>022-031-032-NEZ013-014-SDZ071-292200-
NORTHWEST IOWA

CITY           SKY/WX    TMP DP  RH WIND       PRES   REMARKS
CHEROKEE       CLOUDY    72  69  89 CALM      29.77F
DENISON        CLOUDY    75  70  83 S3        29.76F
ESTHERVILLE    CLOUDY    72  69  90 W8        29.78F
LE MARS        CLOUDY    72  68  88 SW5       29.78S
ORANGE CITY    CLOUDY    73  66  78 CALM      29.78S
SHELDON        DRIZZLE   68  68 100 CALM      29.77F
SIOUX CITY     CLOUDY    75  67  76 W6        29.77F
SPENCER        CLOUDY    70  66  87 NW7       29.77F
STORM LAKE     CLOUDY    72  70  94 N6G13     29.78F
$$

ABBREVIATIONS USED IN REMARKS
   TC - TEMPERATURE IN CELSIUS
  WCI - WIND CHILL INDEX
   HX - HEAT INDEX
  VSB - VISIBILITY



USA.gov is the U.S. government's official web portal to all federal, state and local government web resources and services.